{"data":{"norad_id":87730,"intl_designator":"","name":"UNKNOWN","alt_names":[],"object_type":"UNKNOWN","status":"UNKNOWN","operator":null,"country":null,"launch_date":null,"launch_site_code":null,"launch_vehicle":null,"mission":null,"orbit_class":"UNKNOWN","rcs_meters":null,"size_class":null,"mass_kg":null,"dimensions":null,"purposes":[],"wikipedia_slug":null,"has_3d_model":false,"image_url":null,"decayed_at":null,"tle_current":{"epoch":"2026-05-23T15:04:48.611424Z","epoch_age_seconds":189444,"freshness":"STALE","line1":"1 87730U          26143.62834041  .00000081  00000+0  69261-4 0  9995","line2":"2 87730  82.9428 114.3387 0028409 273.1338  86.6567 13.74532764607572","mean_motion":13.74532764,"eccentricity":0.0028409,"inclination_deg":82.9428,"raan_deg":114.3387,"arg_perigee_deg":273.1338,"mean_anomaly_deg":86.6567,"bstar":6.9261e-5,"rev_number":60757,"period_min":104.76287198928,"perigee_km":962.42933050332,"apogee_km":1004.2557850547,"semimajor_km":7361.479557779,"source":"CELESTRAK","updated_at":"2026-05-25T13:38:11.677789Z"}}}